Follow iAlert.com on twitter @ialertcom
Search For Active Alerts in Your Area  
  Hi Guest:  [ Sign-up / Services ] [ Login ]

Current weather by "City, St" or "zip code"  
 

Advertise Here

Current Conditions: Reading, Reading Regional Airport, PA

Fair and Breezy


53.0 F

Last Updated on Nov 22 2017, 10:54 am EST
Humidity: 57%
Wind Speed: NW 20.7 G 26.5 mph
Barometer 29.95 in
Dewpoint: 37.9 F
Visibility: 10.00 mi
Precip: --
Heat Index: NA
Wind Chill: 47 F
Current conditions at:

Reading, Reading Regional Airport, PA (KRDG)

Lat: 40.37 Lon: 75.959

Local Radar Image active severe weather and emergency alerts image image weather storm and storm spotter reports image weather observation monitoring service image
Local
Radar
Active
Alerts
Storm Reports Obs
Monitoring

iAlert Weather and Emergency Alert Notification Services:


ialert severe weather and emergency alerts by text message and email ialert daily weather forecast by email and text message service ialert real-time weather-observation monitoring and alert notification service ialert storm report monitoring alert notification

Observation History for Reading, Reading Regional Airport, PA


Time Wind
(mph)
Vis
(mi)
Weather Precip (in) Temperature (F) Relative
Humidity
Wind
Chill
(°F)
Heat
Index
(°F)
Pressure
Air Dwpt altimeter
(in)
sea level
(mb)
10:54 am EST NW 20.7 G 26.5 10.00 Fair and Breezy -- 53.0 37.9 57% 47 NA 29.95 1014.7
9:54 am EST NW 8.1 10.00 Fair -- 51.0 42.1 71% 48 NA 29.93 1014.1
8:54 am EST W 4.6 10.00 A Few Clouds -- 45.0 42.1 90% 43 NA 29.94 1014.3
7:54 am EST N 0.0 10.00 Overcast -- 42.0 41.0 96% NA NA 29.93 1014.1
6:54 am EST N 0.0 10.00 Overcast -- 41.0 39.9 96% NA NA 29.91 1013.5
5:54 am EST N 3.5 10.00 Overcast -- 41.0 39.9 96% NA NA 29.90 1013.1
4:54 am EST N 5.8 10.00 Mostly Cloudy -- 39.0 37.9 96% 35 NA 29.90 1013.1
3:54 am EST N 3.5 10.00 Fair -- 39.0 37.9 96% NA NA 29.92 1013.7
2:54 am EST N 3.5 10.00 Overcast -- 40.0 37.9 93% NA NA 29.93 1013.9
1:54 am EST N 3.5 10.00 Fair -- 38.0 36.0 93% NA NA 29.94 1014.6
12:54 am EST N 4.6 10.00 A Few Clouds -- 39.0 37.0 93% 36 NA 29.96 1015.1
11:54 pm EST N 0.0 10.00 Fair -- 42.0 39.9 92% NA NA 29.98 1015.6
10:54 pm EST N 0.0 10.00 Fair -- 43.0 39.9 89% NA NA 29.99 1016.0
9:54 pm EST S 4.6 10.00 Fair -- 49.0 43.0 80% 47 NA 30.01 1016.9
8:54 pm EST SW 5.8 10.00 Fair -- 45.0 39.0 80% 42 NA 30.01 1016.9
7:54 pm EST N 0.0 10.00 Fair -- 48.0 37.0 66% NA NA 30.00 1016.6
6:54 pm EST N 0.0 10.00 Fair -- 47.0 35.1 63% NA NA 30.01 1017.0
5:54 pm EST N 0.0 10.00 Fair -- 50.0 34.0 54% NA NA 30.00 1016.6
4:54 pm EST SE 3.5 10.00 Fair -- 51.0 33.1 50% NA NA 29.99 1016.2
3:54 pm EST S 8.1 G 19.6 10.00 Fair -- 54.0 33.1 45% 52 NA 29.99 1016.2
2:54 pm EST S 9.2 10.00 Fair -- 56.0 32.0 40% 54 NA 30.00 1016.5
1:54 pm EST SW 6.9 10.00 Fair -- 55.0 32.0 42% 53 NA 30.00 1016.7
12:54 pm EST SW 10.4 10.00 Fair -- 55.0 33.1 44% 52 NA 30.02 1017.3
11:54 am EST S 6.9 10.00 Fair -- 52.0 33.1 49% 50 NA 30.06 1018.5

Regional Weather Observation


Reading, Reading Regional Airport, PA (KRDG)

Fair and Breezy
53.0 F

Lancaster, Lancaster Airport, PA (KLNS)

Fair
53.0 F

Selinsgrove Penn Valley Airport, PA (KSEG)

Overcast
46.0 F

Harrisburg, Harrisburg International Airport, PA (KMDT)

Partly Cloudy and Breezy
50.0 F

Harrisburg, Capital City Airport, PA (KCXY)

A Few Clouds and Breezy
51.0 F

Allentown Queen City Municipal Airport, PA (KXLL)

Mostly Cloudy
54.0 F

Advertise Here